Flag for U.S.A. Weather past 2 weeks in Hayward, California, U.S.A.

Now
70 °F

Sunny.


Feels Like: 72 °F
Forecast: 62 / 76 °F
Wind: 13 mph from Northwest

Location: Hayward Air Terminal

Current Time: Aug 29, 2014 at 5:37:20 PM

Latest Report: Aug 29, 2014 at 4:54 PM


Visibility: 10 mi

Pressure: 29.93 "Hg

Humidity: 76%

Dew point: 62 °F

Location of HaywardLocation

Historic Weather in Hayward — Graph

°F

Hayward temperature yesterday

Maximum temperature yesterday: 79 °F (at 3:54 PM)
Minimum temperature yesterday: 62 °F (at 12:54 AM)
Average temperature yesterday: 67 °F

Past Weeks' High & Low Weather Summary

 TemperatureHumidityPressure
High81 °F (Aug 27, 1:54 PM)97% (Aug 27, 11:54 PM)30.10 "Hg (Aug 27, 11:54 PM)
Low59 °F (Aug 14, 10:54 PM)42% (Aug 27, 1:54 PM)29.83 "Hg (Aug 19, 6:54 PM)
Average68 °F75%29.96 "Hg
* Reported Aug 14 3:54 PM — Aug 29 3:54 PM, Hayward, Weather by CustomWeather, © 2014

Note: Actual official high and low records may vary slightly from our data, if they occured in-between our weather recording intervals... More about our weather records

Advertising

Hayward weather history for previous 24 hours

 ConditionsComfort  
Time TempWeatherWind HumidityBarometerVisibility
3:54 PM
Aug 29
73 °FSunny.10 mph69%29.93 "Hg10 mi
2:54 PM72 °FSunny.17 mph68%29.93 "Hg10 mi
1:54 PM74 °FSunny.12 mph60%29.93 "Hg10 mi
11:54 AM71 °FSunny.No wind66%29.95 "Hg10 mi
10:54 AM68 °FOvercast.6 mph76%29.98 "Hg10 mi
9:54 AM67 °FOvercast.6 mph81%29.99 "Hg10 mi
8:54 AM66 °FOvercast.6 mph81%29.98 "Hg10 mi
7:54 AM64 °FLow clouds.5 mph87%29.97 "Hg10 mi
6:54 AM63 °FLow clouds.3 mph90%29.96 "Hg10 mi
5:54 AM64 °FLow clouds.5 mph90%29.96 "Hg10 mi
4:54 AM64 °FLow clouds.6 mph90%29.96 "Hg10 mi
3:54 AM64 °FLow clouds.7 mph90%29.98 "Hg10 mi
2:54 AM64 °FLow clouds.3 mph90%29.98 "Hg10 mi
1:54 AM64 °FLow clouds.6 mph90%29.99 "Hg10 mi
12:54 AM63 °FLow clouds.6 mph93%29.99 "Hg10 mi
11:54 PM
Aug 28
64 °FLow clouds.5 mph87%30.00 "Hg10 mi
10:54 PM62 °FClear.6 mph93%29.99 "Hg10 mi
9:54 PM63 °FClear.7 mph93%30.00 "Hg10 mi
8:54 PM65 °FClear.9 mph87%30.00 "Hg10 mi
7:54 PM67 °FSunny.9 mph85%29.97 "Hg10 mi
6:54 PM70 °FSunny.8 mph73%29.96 "Hg10 mi
5:54 PM73 °FSunny.15 mph66%29.97 "Hg10 mi
Weather by CustomWeather, © 2014

See weather overviewHow to use our weather pages